Hyannis, MA

9:59 PM EDT on June 26, 2017 (GMT -0400)
Barnstable Municipal-Boardman-Polando Field

Weather History for KHYA - November, 2010

Change the Weather History Date:

Wednesday, November 17, 2010

  Actual Average Record
Temperature  
Mean Temperature 54 °F -  
Max Temperature 60 °F 51 °F 68 °F (1990)
Min Temperature 48 °F 32 °F 7 °F (1967)
Degree Days  
Heating Degree Days 11    
Growing Degree Days 4 (Base 50)    
Moisture  
Dew Point 50 °F    
Average Humidity 87    
Maximum Humidity 100    
Minimum Humidity 52    
Precipitation  
Precipitation 0.59 in - - ()
Sea Level Pressure  
Sea Level Pressure 29.65 in    
Wind  
Wind Speed 13 mph (South)    
Max Wind Speed 25 mph    
Max Gust Speed 36 mph    
Visibility 6 miles    
Events Rain    
Averages and records for this station are not official NWS values.
T = Trace of Precipitation, MM = Missing Value Source: NWS Daily Summary

Daily Weather History Graph

Daily Weather History Graph

Search for Another Location

Airport or City:

Trip Planner

Search our weather history database for the weather conditions in past years. The results will help you decide how hot, cold, wet, or windy it might be!

Date:

Astronomy

Nov. 17, 2010 Rise Set
Actual Time 6:32 AM EST 4:19 PM EST
Civil Twilight 6:02 AM EST 4:49 PM EST
Nautical Twilight 5:28 AM EST 5:22 PM EST
Astronomical Twilight 4:55 AM EST 5:55 PM EST
Moon 1:52 PM EST (11/17) 2:25 AM EST (11/17)
Length of Visible Light 10h 46m
Length of Day
9h 46m
Waxing Gibbous, 85% of the Moon is Illuminated
Nov 17
Waxing Gibbous
Nov 21
Full
Nov 28
Last Quarter
Dec 5
New
Dec 13
First Quarter

Hourly Weather History & Observations

Time (EST) Temp. Dew Point Humidity Pressure Visibility Wind Dir Wind Speed Gust Speed Precip Events Conditions
12:13 AM 48.2 °F 48.2 °F 100% 29.96 in 2.0 mi ESE 9.2 mph - 0.01 in Rain Light Rain
12:24 AM 50.0 °F 50.0 °F 100% 29.96 in 1.8 mi ESE 9.2 mph - 0.02 in Rain Light Rain
12:31 AM 50.0 °F 50.0 °F 100% 29.95 in 2.0 mi SE 6.9 mph - 0.02 in Rain Light Rain
12:56 AM 50.0 °F 50.0 °F 100% 29.91 in 3.0 mi East 9.2 mph - 0.03 in Rain Light Rain
1:56 AM 51.1 °F 50.0 °F 96% 29.86 in 10.0 mi East 12.7 mph - 0.00 in   Overcast
2:56 AM 52.0 °F 51.1 °F 97% 29.82 in 10.0 mi ESE 12.7 mph 23.0 mph N/A   Overcast
3:56 AM 52.0 °F 52.0 °F 100% 29.74 in 10.0 mi ESE 12.7 mph 23.0 mph 0.00 in   Overcast
4:56 AM 55.0 °F 55.0 °F 100% 29.70 in 5.0 mi SE 15.0 mph 24.2 mph 0.08 in Rain Rain
5:21 AM 55.4 °F 55.4 °F 100% 29.68 in 2.5 mi SE 11.5 mph 24.2 mph 0.16 in Rain Heavy Rain
5:33 AM 55.4 °F 55.4 °F 100% 29.67 in 3.0 mi SE 15.0 mph 25.3 mph 0.22 in Rain Heavy Rain
6:03 AM 57.2 °F 57.2 °F 100% 29.66 in 4.0 mi SSE 12.7 mph 27.6 mph 0.02 in Rain Rain
6:29 AM 55.4 °F 55.4 °F 100% 29.65 in 1.8 mi SSE 11.5 mph 21.9 mph 0.21 in Rain Heavy Rain
6:44 AM 57.2 °F 57.2 °F 100% 29.61 in 3.0 mi SSE 11.5 mph 16.1 mph 0.32 in Rain Rain
6:56 AM 57.0 °F 57.0 °F 100% 29.62 in 5.0 mi SSE 12.7 mph 24.2 mph 0.34 in Rain Light Rain
7:03 AM 57.2 °F 57.2 °F 100% 29.62 in 2.0 mi SSE 13.8 mph 27.6 mph 0.01 in Rain Light Rain
7:56 AM 57.9 °F 57.9 °F 100% 29.60 in 2.0 mi South 15.0 mph 23.0 mph 0.09 in Rain Light Rain
8:03 AM 57.2 °F 57.2 °F 100% 29.59 in 5.0 mi South 13.8 mph 21.9 mph 0.00 in Rain Light Rain
8:56 AM 55.9 °F 55.9 °F 100% 29.57 in 3.0 mi South 10.4 mph - 0.04 in Rain Light Rain
9:56 AM 55.9 °F 55.9 °F 100% 29.55 in 5.0 mi South 12.7 mph 21.9 mph 0.01 in   Overcast
10:56 AM 57.9 °F 57.0 °F 97% 29.54 in 5.0 mi SSW 13.8 mph 24.2 mph N/A   Overcast
11:10 AM 57.2 °F 55.4 °F 94% 29.53 in 7.0 mi SSW 15.0 mph 26.5 mph N/A   Scattered Clouds
11:56 AM 60.1 °F 53.1 °F 78% 29.51 in 10.0 mi SSW 18.4 mph 31.1 mph N/A   Mostly Cloudy
12:38 PM 59.0 °F 53.6 °F 82% 29.49 in 9.0 mi SW 21.9 mph 32.2 mph N/A   Partly Cloudy
12:56 PM 59.0 °F 52.0 °F 78% 29.49 in 10.0 mi SW 18.4 mph 28.8 mph N/A   Clear
1:56 PM 59.0 °F 50.0 °F 72% 29.49 in 10.0 mi SSW 24.2 mph 32.2 mph N/A   Clear
2:56 PM 55.9 °F 46.9 °F 72% 29.51 in 10.0 mi SW 25.3 mph 35.7 mph N/A   Scattered Clouds
3:56 PM 55.0 °F 45.0 °F 69% 29.53 in 10.0 mi SW 25.3 mph 32.2 mph N/A   Clear
4:56 PM 54.0 °F 44.1 °F 69% 29.55 in 10.0 mi WSW 24.2 mph 33.4 mph N/A   Clear
5:56 PM 55.0 °F 42.1 °F 62% 29.58 in 10.0 mi WSW 20.7 mph 35.7 mph N/A   Clear
7:56 PM 53.1 °F 42.1 °F 66% 29.61 in 10.0 mi WSW 24.2 mph 29.9 mph N/A   Clear
8:56 PM 53.1 °F 36.0 °F 52% 29.64 in 10.0 mi WSW 21.9 mph 29.9 mph N/A   Clear
9:56 PM 52.0 °F 35.1 °F 53% 29.66 in 10.0 mi WSW 23.0 mph 34.5 mph N/A   Clear
10:56 PM 51.1 °F 35.1 °F 54% 29.68 in 10.0 mi WSW 17.3 mph 31.1 mph N/A   Clear
11:56 PM 51.1 °F 35.1 °F 54% 29.70 in 10.0 mi West 16.1 mph 27.6 mph N/A   Clear